Location: Ripley
(48.3812°N, 115.4473°W)
Time: 06:30:40
(UTC+00:00)

EO-79 - Pass Details

Date: 09 July 2022
Orbit: 588 x 603 km, 98.0° (Epoch: 15 August)

Event Time Altitude Azimuth Distance (km) Brightness Sun altitude
Rises 08:43:36 0° 23° (NNE) 2,864 ? -18.2°
Reaches altitude 10° 08:46:03 10° 35° (NE) 1,958 ? -18.1°
Maximum altitude 08:49:43 28° 95° (E) 1,150 ? -17.9°
Enters shadow 08:51:50 19° 139° (SE) 1,464 ? -17.8°
